| time (UTC) | temp F | wind direction | speed MPH | gust MPH | rain 1hr in | rain 24hr in | rain mn in | humidity % | barometer mb |
| 20260506090520 | 60 | 108 | 3.0 | 6.0 | 0.00 | 0.00 | 0.00 | 85 | 1017.5 |
| 20260506085520 | 60 | 103 | 3.0 | 5.0 | 0.00 | 0.00 | 0.00 | 85 | 1017.5 |
| 20260506084530 | 60 | 102 | 3.0 | 5.0 | 0.00 | 0.00 | 0.00 | 85 | 1017.5 |
| 20260506083530 | 60 | 107 | 3.0 | 5.0 | 0.00 | 0.00 | 0.00 | 86 | 1017.5 |
| 20260506082530 | 60 | 106 | 4.0 | 5.0 | 0.00 | 0.00 | 0.00 | 86 | 1017.5 |
| 20260506081530 | 60 | 104 | 3.0 | 4.0 | 0.00 | 0.00 | 0.00 | 86 | 1017.5 |
| 20260506080521 | 60 | 106 | 2.0 | 5.0 | 0.00 | 0.00 | 0.00 | 87 | 1017.4 |
| 20260506072531 | 61 | 92 | 2.0 | 3.0 | 0.00 | 0.00 | 0.00 | 84 | 1017.1 |
| 20260506071531 | 61 | 100 | 2.0 | 4.0 | 0.00 | 0.00 | 0.00 | 85 | 1017.0 |
| 20260506070532 | 61 | 103 | 2.0 | 3.0 | 0.00 | 0.00 | 0.00 | 84 | 1017.0 |
| 20260506061532 | 61 | 113 | 1.0 | 2.0 | 0.00 | 0.07 | 0.02 | 84 | 1016.7 |
| 20260506060518 | 62 | 114 | 2.0 | 3.0 | 0.00 | 0.10 | 0.02 | 85 | 1016.6 |
| 20260506050537 | 63 | 224 | 1.0 | 3.0 | 0.00 | 0.17 | 0.02 | 83 | 1016.1 |
| 20260506044517 | 63 | 111 | 2.0 | 3.0 | 0.00 | 0.19 | 0.02 | 82 | 1015.9 |
| 20260506043520 | 63 | 143 | 1.0 | 2.0 | 0.00 | 0.23 | 0.02 | 82 | 1015.8 |
| 20260506042520 | 63 | 121 | 1.0 | 3.0 | 0.00 | 0.27 | 0.02 | 82 | 1015.6 |
| 20260506041540 | 63 | 198 | 1.0 | 2.0 | 0.00 | 0.30 | 0.02 | 82 | 1015.4 |
| 20260506040538 | 64 | 196 | 1.0 | 2.0 | 0.00 | 0.33 | 0.02 | 81 | 1015.3 |
| 20260506035538 | 64 | 111 | 1.0 | 2.0 | 0.00 | 0.35 | 0.02 | 81 | 1015.2 |
| 20260506034538 | 64 | 194 | 1.0 | 2.0 | 0.00 | 0.37 | 0.02 | 80 | 1015.0 |
| 20260506033518 | 64 | 112 | 1.0 | 3.0 | 0.00 | 0.41 | 0.02 | 80 | 1015.0 |
| 20260506032518 | 64 | 120 | 1.0 | 2.0 | 0.00 | 0.44 | 0.02 | 79 | 1014.9 |
| 20260506031519 | 64 | 139 | 2.0 | 4.0 | 0.00 | 0.47 | 0.02 | 78 | 1014.7 |
| 20260506030519 | 65 | 113 | 4.0 | 7.0 | 0.00 | 0.51 | 0.02 | 77 | 1014.5 |
| 20260506025600 | 65 | 108 | 4.0 | 7.0 | 0.00 | 0.58 | 0.02 | 77 | 1014.4 |
| 20260506024540 | 65 | 90 | 3.0 | 5.0 | 0.00 | 0.62 | 0.02 | 78 | 1014.2 |
| 20260506023520 | 65 | 99 | 3.0 | 5.0 | 0.00 | 0.63 | 0.02 | 77 | 1014.2 |
| 20260506022520 | 65 | 87 | 4.0 | 8.0 | 0.00 | 0.63 | 0.02 | 76 | 1014.0 |
| 20260506021520 | 65 | 100 | 3.0 | 5.0 | 0.00 | 0.63 | 0.02 | 77 | 1013.9 |
| 20260506020520 | 65 | 111 | 3.0 | 5.0 | 0.00 | 0.64 | 0.02 | 76 | 1013.8 |
| 20260506015520 | 65 | 101 | 5.0 | 8.0 | 0.00 | 0.65 | 0.02 | 76 | 1013.8 |
| 20260506014517 | 66 | 107 | 4.0 | 7.0 | 0.00 | 0.65 | 0.02 | 76 | 1013.8 |
| 20260506013520 | 66 | 108 | 4.0 | 8.0 | 0.00 | 0.73 | 0.02 | 75 | 1013.8 |
| 20260506012521 | 66 | 102 | 4.0 | 7.0 | 0.00 | 0.84 | 0.02 | 74 | 1013.7 |
| 20260506011521 | 66 | 101 | 4.0 | 7.0 | 0.00 | 0.93 | 0.02 | 74 | 1013.6 |
| 20260506010521 | 66 | 95 | 6.0 | 8.0 | 0.00 | 1.02 | 0.02 | 74 | 1013.5 |
| 20260506005521 | 67 | 85 | 6.0 | 9.0 | 0.00 | 1.08 | 0.02 | 71 | 1013.5 |
| 20260506004558 | 67 | 89 | 6.0 | 9.0 | 0.00 | 1.12 | 0.02 | 71 | 1013.5 |
| 20260506003558 | 67 | 105 | 2.0 | 5.0 | 0.00 | 1.14 | 0.02 | 68 | 1013.5 |
| 20260506002517 | 67 | 98 | 2.0 | 6.0 | 0.00 | 1.16 | 0.02 | 69 | 1013.6 |
| 20260506001542 | 67 | 102 | 3.0 | 5.0 | 0.00 | 1.20 | 0.02 | 67 | 1013.5 |
| 20260506000542 | 67 | 105 | 3.0 | 4.0 | 0.00 | 1.21 | 0.02 | 69 | 1013.5 |
| 20260505235542 | 68 | 141 | 1.0 | 3.0 | 0.00 | 1.21 | 0.02 | 69 | 1013.5 |
| 20260505234543 | 67 | 180 | 1.0 | 3.0 | 0.00 | 1.23 | 0.02 | 68 | 1013.5 |
| 20260505233523 | 68 | 169 | 2.0 | 4.0 | 0.00 | 1.24 | 0.02 | 70 | 1013.6 |
| 20260505232543 | 68 | 116 | 2.0 | 3.0 | 0.00 | 1.25 | 0.02 | 67 | 1013.6 |
| 20260505231519 | 68 | 96 | 2.0 | 5.0 | 0.00 | 1.27 | 0.02 | 67 | 1013.6 |
| 20260505230523 | 69 | 90 | 2.0 | 5.0 | 0.00 | 1.28 | 0.02 | 66 | 1013.7 |
| 20260505225524 | 68 | 232 | 2.0 | 4.0 | 0.00 | 1.28 | 0.02 | 67 | 1013.7 |
| 20260505224524 | 70 | 232 | 3.0 | 4.0 | 0.00 | 1.29 | 0.02 | 62 | 1013.9 |
| 20260505223523 | 68 | 195 | 2.0 | 4.0 | 0.00 | 1.30 | 0.02 | 66 | 1014.0 |
| 20260505222524 | 67 | 244 | 1.0 | 3.0 | 0.00 | 1.33 | 0.02 | 71 | 1014.1 |
| 20260505221524 | 67 | 322 | 2.0 | 5.0 | 0.00 | 1.35 | 0.02 | 67 | 1014.2 |
| 20260505220520 | 65 | 313 | 1.0 | 6.0 | 0.00 | 1.35 | 0.02 | 72 | 1014.4 |
| 20260505215524 | 65 | 266 | 3.0 | 5.0 | 0.00 | 1.36 | 0.02 | 73 | 1014.5 |
| 20260505214524 | 65 | 144 | 1.0 | 2.0 | 0.00 | 1.38 | 0.02 | 73 | 1014.6 |
| 20260505213540 | 64 | 211 | 1.0 | 5.0 | 0.00 | 1.40 | 0.02 | 77 | 1014.7 |
| 20260505212524 | 63 | 214 | 1.0 | 3.0 | 0.00 | 1.40 | 0.02 | 76 | 1014.7 |
| 20260505211525 | 63 | 228 | 3.0 | 6.0 | 0.00 | 1.41 | 0.02 | 77 | 1014.8 |
| 20260505210525 | 63 | 234 | 2.0 | 5.0 | 0.00 | 1.42 | 0.02 | 78 | 1014.8 |
| 20260505205525 | 62 | 286 | 2.0 | 4.0 | 0.00 | 1.43 | 0.02 | 79 | 1014.8 |
| 20260505204525 | 62 | 266 | 2.0 | 5.0 | 0.00 | 1.43 | 0.02 | 79 | 1014.8 |
| 20260505203525 | 62 | 234 | 2.0 | 3.0 | 0.00 | 1.44 | 0.02 | 79 | 1014.8 |
| 20260505202526 | 62 | 245 | 3.0 | 5.0 | 0.00 | 1.44 | 0.02 | 79 | 1014.9 |
| 20260505201526 | 62 | 230 | 2.0 | 5.0 | 0.00 | 1.46 | 0.02 | 80 | 1014.9 |
| 20260505200522 | 62 | 265 | 3.0 | 8.0 | 0.00 | 1.47 | 0.02 | 80 | 1015.0 |
| 20260505195527 | 63 | 229 | 2.0 | 4.0 | 0.00 | 1.49 | 0.02 | 78 | 1015.1 |
| 20260505194542 | 63 | 216 | 2.0 | 6.0 | 0.00 | 1.50 | 0.02 | 79 | 1015.2 |
| 20260505193522 | 63 | 270 | 4.0 | 6.0 | 0.00 | 1.50 | 0.02 | 79 | 1015.2 |
| 20260505192526 | 64 | 246 | 2.0 | 4.0 | 0.00 | 1.50 | 0.02 | 77 | 1015.3 |
| 20260505191526 | 61 | 249 | 2.0 | 4.0 | 0.00 | 1.50 | 0.02 | 80 | 1015.3 |
| 20260505190527 | 61 | 228 | 3.0 | 4.0 | 0.00 | 1.50 | 0.02 | 82 | 1015.3 |
| 20260505185527 | 62 | 248 | 2.0 | 4.0 | 0.00 | 1.50 | 0.02 | 80 | 1015.3 |
| 20260505184523 | 61 | 350 | 2.0 | 5.0 | 0.00 | 1.51 | 0.02 | 81 | 1015.3 |
| 20260505183527 | 60 | 230 | 2.0 | 5.0 | 0.00 | 1.51 | 0.02 | 86 | 1015.4 |
| 20260505182528 | 59 | 235 | 1.0 | 3.0 | 0.00 | 1.51 | 0.02 | 85 | 1015.4 |
| 20260505181527 | 59 | 252 | 2.0 | 4.0 | 0.00 | 1.51 | 0.02 | 86 | 1015.3 |
| 20260505180528 | 58 | 282 | 3.0 | 4.0 | 0.00 | 1.51 | 0.02 | 88 | 1015.4 |
| 20260505175529 | 58 | 279 | 1.0 | 3.0 | 0.00 | 1.51 | 0.02 | 88 | 1015.4 |
| 20260505174528 | 57 | 289 | 2.0 | 3.0 | 0.00 | 1.51 | 0.02 | 90 | 1015.4 |
| 20260505173528 | 57 | 239 | 2.0 | 4.0 | 0.00 | 1.51 | 0.02 | 90 | 1015.4 |
| 20260505172529 | 57 | 241 | 2.0 | 4.0 | 0.00 | 1.51 | 0.02 | 90 | 1015.4 |
| 20260505171529 | 57 | 219 | 1.0 | 4.0 | 0.00 | 1.51 | 0.02 | 90 | 1015.4 |
| 20260505170529 | 56 | 204 | 2.0 | 2.0 | 0.00 | 1.51 | 0.02 | 91 | 1015.5 |
| 20260505165529 | 56 | 110 | 3.0 | 4.0 | 0.00 | 1.51 | 0.02 | 92 | 1015.5 |
| 20260505164519 | 56 | 104 | 4.0 | 6.0 | 0.00 | 1.51 | 0.02 | 93 | 1015.3 |
| 20260505163519 | 56 | 108 | 4.0 | 6.0 | 0.00 | 1.51 | 0.02 | 94 | 1015.3 |
| 20260505162530 | 55 | 101 | 3.0 | 4.0 | 0.00 | 1.51 | 0.02 | 96 | 1015.2 |
| 20260505161520 | 55 | 107 | 4.0 | 6.0 | 0.00 | 1.51 | 0.02 | 95 | 1015.2 |
| 20260505160530 | 55 | 106 | 3.0 | 5.0 | 0.00 | 1.51 | 0.02 | 96 | 1015.3 |
| 20260505152600 | 54 | 106 | 4.0 | 6.0 | 0.00 | 1.51 | 0.02 | 99 | 1014.9 |
| 20260505151521 | 54 | 108 | 4.0 | 7.0 | 0.00 | 1.51 | 0.02 | 99 | 1014.8 |
| 20260505150521 | 54 | 110 | 5.0 | 8.0 | 0.00 | 1.51 | 0.02 | 99 | 1014.8 |
| 20260505140522 | 53 | 109 | 5.0 | 8.0 | 0.00 | 1.51 | 0.02 | 99 | 1014.3 |
| 20260505124523 | 53 | 109 | 4.0 | 7.0 | 0.00 | 1.52 | 0.02 | 99 | 1013.9 |
| 20260505123520 | 53 | 102 | 2.0 | 4.0 | 0.00 | 1.52 | 0.02 | 99 | 1013.9 |
| 20260505122521 | 53 | 114 | 2.0 | 3.0 | 0.00 | 1.52 | 0.02 | 99 | 1013.9 |
| 20260505121521 | 53 | 101 | 3.0 | 3.0 | 0.00 | 1.52 | 0.02 | 99 | 1013.9 |
| 20260505120520 | 53 | 108 | 2.0 | 4.0 | 0.00 | 1.52 | 0.02 | 99 | 1014.0 |
| 20260505115520 | 53 | 104 | 2.0 | 3.0 | 0.00 | 1.52 | 0.02 | 99 | 1014.0 |
| 20260505114521 | 53 | 197 | 2.0 | 2.0 | 0.00 | 1.52 | 0.02 | 99 | 1013.9 |
| 20260505113521 | 53 | 169 | 1.0 | 3.0 | 0.00 | 1.52 | 0.02 | 100 | 1014.0 |
| 20260505112521 | 54 | 156 | 2.0 | 3.0 | 0.00 | 1.52 | 0.02 | 99 | 1014.0 |
| 20260505111522 | 54 | 119 | 2.0 | 5.0 | 0.00 | 1.52 | 0.02 | 99 | 1013.9 |
| 20260505110521 | 54 | 161 | 2.0 | 3.0 | 0.00 | 1.52 | 0.02 | 99 | 1013.9 |
| 20260505101519 | 54 | 113 | 3.0 | 4.0 | 0.00 | 1.52 | 0.02 | 99 | 1014.0 |
| 20260505100519 | 54 | 117 | 3.0 | 5.0 | 0.00 | 1.52 | 0.02 | 99 | 1014.0 |
| 20260505095540 | 54 | 110 | 3.0 | 5.0 | 0.00 | 1.52 | 0.02 | 99 | 1013.8 |
| 20260505094520 | 54 | 107 | 3.0 | 5.0 | 0.00 | 1.52 | 0.02 | 99 | 1013.8 |
| 20260505093520 | 54 | 111 | 3.0 | 6.0 | 0.00 | 1.52 | 0.02 | 99 | 1014.0 |
| 20260505092540 | 54 | 114 | 2.0 | 6.0 | 0.00 | 1.52 | 0.02 | 98 | 1014.1 |
| 20260505091520 | 54 | 104 | 4.0 | 6.0 | 0.00 | 1.52 | 0.02 | 99 | 1014.1 |